TimeMST,TemperatureF,Dew PointF,Humidity,Sea Level PressureIn,VisibilityMPH,Wind Direction,Wind SpeedMPH,Gust SpeedMPH,PrecipitationIn,Events,Conditions,WindDirDegrees,DateUTC
12:15 AM,39.6,26.6,60,30.17,10.0,Calm,Calm,-,N/A,,Scattered Clouds,0,2013-11-14 07:15:00
12:35 AM,39.6,26.8,60,30.17,10.0,Calm,Calm,-,N/A,,Scattered Clouds,0,2013-11-14 07:35:00
12:55 AM,39.9,27.0,60,30.17,10.0,Calm,Calm,-,N/A,,Scattered Clouds,0,2013-11-14 07:55:00
1:15 AM,39.6,28.4,64,30.17,10.0,Calm,Calm,-,N/A,,Scattered Clouds,0,2013-11-14 08:15:00
1:35 AM,38.3,26.8,63,30.17,10.0,SSW,4.6,-,N/A,,Scattered Clouds,210,2013-11-14 08:35:00
1:55 AM,36.5,28.0,71,30.18,10.0,Calm,Calm,-,N/A,,Scattered Clouds,0,2013-11-14 08:55:00
2:15 AM,36.3,28.2,72,30.17,10.0,Calm,Calm,-,N/A,,Scattered Clouds,0,2013-11-14 09:15:00
2:35 AM,36.9,28.6,72,30.19,10.0,North,4.6,-,N/A,,Mostly Cloudy,360,2013-11-14 09:35:00
2:55 AM,37.6,27.9,68,30.18,10.0,Calm,Calm,-,N/A,,Scattered Clouds,0,2013-11-14 09:55:00
3:15 AM,36.7,27.0,68,30.18,10.0,NE,4.6,-,N/A,,Scattered Clouds,50,2013-11-14 10:15:00
3:35 AM,36.1,28.0,72,30.18,10.0,Calm,Calm,-,N/A,,Clear,0,2013-11-14 10:35:00
3:55 AM,37.2,27.3,67,30.18,10.0,NE,4.6,-,N/A,,Scattered Clouds,40,2013-11-14 10:55:00
4:15 AM,35.6,27.1,71,30.18,10.0,NE,4.6,-,N/A,,Mostly Cloudy,40,2013-11-14 11:15:00
4:35 AM,35.8,26.6,69,30.18,10.0,North,3.5,-,N/A,,Scattered Clouds,10,2013-11-14 11:35:00
4:55 AM,36.3,26.4,67,30.18,10.0,Calm,Calm,-,N/A,,Mostly Cloudy,0,2013-11-14 11:55:00
5:15 AM,37.4,26.4,65,30.18,10.0,Calm,Calm,-,N/A,,Overcast,0,2013-11-14 12:15:00
5:35 AM,35.1,27.3,73,30.18,10.0,Calm,Calm,-,N/A,,Overcast,0,2013-11-14 12:35:00
5:55 AM,34.5,27.3,75,30.18,10.0,SW,3.5,-,N/A,,Scattered Clouds,220,2013-11-14 12:55:00
6:15 AM,33.4,26.6,76,30.18,10.0,Calm,Calm,-,N/A,,Clear,0,2013-11-14 13:15:00
6:35 AM,32.5,26.4,78,30.19,10.0,Calm,Calm,-,N/A,,Clear,0,2013-11-14 13:35:00
6:55 AM,32.2,25.5,76,30.20,10.0,Calm,Calm,-,N/A,,Clear,0,2013-11-14 13:55:00
7:15 AM,32.7,25.5,75,30.20,10.0,Calm,Calm,-,N/A,,Clear,0,2013-11-14 14:15:00
7:35 AM,34.7,26.4,72,30.20,10.0,Calm,Calm,-,N/A,,Clear,0,2013-11-14 14:35:00
7:55 AM,37.6,27.5,67,30.20,10.0,Calm,Calm,-,N/A,,Clear,0,2013-11-14 14:55:00
8:15 AM,38.5,27.3,64,30.20,10.0,Calm,Calm,-,N/A,,Clear,0,2013-11-14 15:15:00
8:35 AM,37.6,27.3,66,30.21,10.0,Calm,Calm,-,N/A,,Clear,0,2013-11-14 15:35:00
8:55 AM,40.3,27.5,60,30.21,10.0,Calm,Calm,-,N/A,,Clear,0,2013-11-14 15:55:00
9:15 AM,40.8,27.5,59,30.20,10.0,Calm,Calm,-,N/A,,Clear,0,2013-11-14 16:15:00
9:35 AM,42.8,27.9,56,30.19,10.0,Calm,Calm,-,N/A,,Clear,0,2013-11-14 16:35:00
9:55 AM,45.0,28.0,52,30.20,10.0,Calm,Calm,-,N/A,,Clear,0,2013-11-14 16:55:00
10:15 AM,47.3,27.9,47,30.19,10.0,Calm,Calm,-,N/A,,Clear,0,2013-11-14 17:15:00
10:35 AM,48.7,27.5,44,30.18,10.0,Calm,Calm,-,N/A,,Clear,0,2013-11-14 17:35:00
10:55 AM,50.4,27.0,40,30.17,10.0,Calm,Calm,-,N/A,,Clear,0,2013-11-14 17:55:00
11:15 AM,50.7,27.3,40,30.16,10.0,West,3.5,-,N/A,,Clear,270,2013-11-14 18:15:00
11:35 AM,51.8,27.5,39,30.15,10.0,SW,3.5,-,N/A,,Clear,230,2013-11-14 18:35:00
11:55 AM,52.7,26.6,36,30.13,10.0,Calm,Calm,-,N/A,,Clear,0,2013-11-14 18:55:00
12:15 PM,54.3,26.6,34,30.12,10.0,Calm,Calm,-,N/A,,Clear,0,2013-11-14 19:15:00
12:35 PM,55.4,26.4,33,30.10,10.0,West,3.5,-,N/A,,Clear,270,2013-11-14 19:35:00
12:55 PM,56.8,27.0,32,30.09,10.0,Calm,Calm,-,N/A,,Clear,0,2013-11-14 19:55:00
1:15 PM,57.4,26.6,31,30.08,10.0,SSW,5.8,-,N/A,,Clear,200,2013-11-14 20:15:00
1:35 PM,58.1,25.5,29,30.07,10.0,West,4.6,-,N/A,,Clear,260,2013-11-14 20:35:00
1:55 PM,59.0,25.0,27,30.05,10.0,WSW,3.5,-,N/A,,Clear,250,2013-11-14 20:55:00
2:15 PM,58.1,23.7,27,30.03,10.0,Calm,Calm,-,N/A,,Clear,0,2013-11-14 21:15:00
2:35 PM,58.1,23.0,26,30.02,10.0,Calm,Calm,-,N/A,,Clear,0,2013-11-14 21:35:00
2:55 PM,58.3,22.1,25,30.02,10.0,Calm,Calm,-,N/A,,Clear,0,2013-11-14 21:55:00
3:15 PM,58.1,22.8,26,30.00,10.0,Calm,Calm,-,N/A,,Clear,0,2013-11-14 22:15:00
3:35 PM,58.5,23.2,26,30.00,10.0,ESE,3.5,-,N/A,,Clear,110,2013-11-14 22:35:00
3:55 PM,58.1,23.0,26,29.99,10.0,SE,4.6,-,N/A,,Clear,130,2013-11-14 22:55:00
4:15 PM,57.7,23.4,27,29.98,10.0,ESE,4.6,-,N/A,,Clear,120,2013-11-14 23:15:00
4:35 PM,56.7,24.6,29,29.98,10.0,SSE,5.8,-,N/A,,Clear,150,2013-11-14 23:35:00
4:55 PM,54.5,24.8,32,29.96,10.0,SSE,3.5,-,N/A,,Clear,160,2013-11-14 23:55:00
5:15 PM,51.8,24.3,34,29.97,10.0,SSW,4.6,-,N/A,,Clear,200,2013-11-15 00:15:00
5:35 PM,50.9,23.9,35,29.97,10.0,WSW,3.5,-,N/A,,Clear,240,2013-11-15 00:35:00
5:55 PM,48.7,24.8,39,29.96,10.0,Calm,Calm,-,N/A,,Clear,0,2013-11-15 00:55:00
6:15 PM,47.1,24.4,41,29.96,10.0,Calm,Calm,-,N/A,,Clear,0,2013-11-15 01:15:00
6:35 PM,45.5,25.5,46,29.96,10.0,North,4.6,-,N/A,,Clear,10,2013-11-15 01:35:00
6:55 PM,44.1,24.1,45,29.96,10.0,NE,6.9,-,N/A,,Clear,50,2013-11-15 01:55:00
7:15 PM,42.8,23.4,46,29.96,10.0,NNE,6.9,-,N/A,,Clear,30,2013-11-15 02:15:00
7:35 PM,43.3,24.1,47,29.95,10.0,North,10.4,-,N/A,,Clear,10,2013-11-15 02:35:00
7:55 PM,41.5,24.3,50,29.95,10.0,East,6.9,-,N/A,,Clear,100,2013-11-15 02:55:00
8:15 PM,41.4,22.1,46,29.95,10.0,East,10.4,-,N/A,,Clear,80,2013-11-15 03:15:00
8:35 PM,40.8,24.1,51,29.95,10.0,ENE,9.2,-,N/A,,Clear,70,2013-11-15 03:35:00
8:55 PM,40.1,24.4,54,29.94,10.0,ENE,9.2,-,N/A,,Clear,60,2013-11-15 03:55:00
9:15 PM,41.0,24.8,53,29.93,10.0,ENE,9.2,-,N/A,,Clear,70,2013-11-15 04:15:00
9:35 PM,39.7,23.0,51,29.92,10.0,ENE,8.1,-,N/A,,Clear,70,2013-11-15 04:35:00
9:55 PM,37.9,22.3,53,29.90,10.0,ENE,9.2,-,N/A,,Clear,60,2013-11-15 04:55:00
10:15 PM,37.2,23.2,57,29.89,10.0,NE,6.9,-,N/A,,Clear,40,2013-11-15 05:15:00
10:35 PM,36.9,21.7,54,29.89,10.0,ENE,4.6,-,N/A,,Clear,60,2013-11-15 05:35:00
10:55 PM,36.5,21.4,54,29.89,10.0,ENE,3.5,-,N/A,,Clear,60,2013-11-15 05:55:00
11:15 PM,34.3,23.2,64,29.90,10.0,SW,3.5,-,N/A,,Clear,220,2013-11-15 06:15:00
11:55 PM,35.8,23.0,60,29.90,10.0,Calm,Calm,-,N/A,,Clear,0,2013-11-15 06:55:00